When you browse on this site, cookies collect data to enhance your experience and personalize the content and advertising you see.
Visit our Privacy Policy to learn more. By continuing to use the site, you agree to this use of cookies and data.
  • In Deutschland
  • Länderverzeichnis
  • Für 7 Tage
  • Wassertemperatur
  • Satellitenkarten
  • Wetterkarte
  • Widgets
  • user-avatar
    Anmelden

    Stündliche Wetter Sidrolândia

    Heute, 18 Dezember, Dienstag

    Zeit Temperatur Niederschläge Wind Luftdruck Luftfeuchtigkeit
    00:00 +27°C° 0 mm 1 m/S 719 mmHg 60%
    01:00 +27°C° 0 mm 1 m/S 719 mmHg 60%
    02:00 +26°C° 0 mm 1 m/S 719 mmHg 62%
    03:00 +26°C° 0 mm 1 m/S 719 mmHg 63%
    04:00 +26°C° 0 mm 1 m/S 719 mmHg 63%
    05:00 +24°C° 0 mm 0 m/S 719 mmHg 64%
    06:00 +28°C° 0 mm 1 m/S 720 mmHg 57%
    07:00 +31°C° 0 mm 1 m/S 721 mmHg 51%
    08:00 +34°C° 0 mm 2 m/S 721 mmHg 43%
    09:00 +35°C° 0 mm 2 m/S 721 mmHg 40%
    10:00 +36°C° 0 mm 3 m/S 721 mmHg 37%
    11:00 +37°C° 0 mm 3 m/S 721 mmHg 34%
    12:00 +37°C° 0 mm 3 m/S 720 mmHg 33%
    13:00 +37°C° 0 mm 3 m/S 720 mmHg 32%
    14:00 +38°C° 0 mm 2 m/S 720 mmHg 32%
    15:00 +37°C° 0 mm 2 m/S 719 mmHg 33%
    16:00 +37°C° 0 mm 2 m/S 719 mmHg 35%
    17:00 +36°C° 0 mm 2 m/S 718 mmHg 37%
    18:00 +34°C° 0 mm 2 m/S 719 mmHg 41%
    19:00 +31°C° 0 mm 2 m/S 719 mmHg 45%
    20:00 +29°C° 0 mm 2 m/S 719 mmHg 49%
    21:00 +29°C° 0 mm 1 m/S 719 mmHg 50%
    22:00 +28°C° 0 mm 1 m/S 719 mmHg 52%
    23:00 +28°C° 0 mm 1 m/S 719 mmHg 53%

    Morgen, 19 Dezember, Mittwoch

    Zeit Temperatur Niederschläge Wind Luftdruck Luftfeuchtigkeit
    00:00 +27°C° 0 mm 1 m/S 719 mmHg 54%
    01:00 +27°C° 0 mm 1 m/S 719 mmHg 55%
    02:00 +26°C° 0 mm 1 m/S 719 mmHg 56%
    03:00 +26°C° 0 mm 1 m/S 719 mmHg 57%
    04:00 +26°C° 0 mm 1 m/S 719 mmHg 57%
    05:00 +25°C° 0 mm 1 m/S 719 mmHg 58%
    06:00 +28°C° 0 mm 2 m/S 719 mmHg 52%
    07:00 +31°C° 0 mm 2 m/S 720 mmHg 46%
    08:00 +34°C° 0 mm 3 m/S 720 mmHg 39%
    09:00 +36°C° 0 mm 3 m/S 720 mmHg 35%
    10:00 +37°C° 0 mm 3 m/S 720 mmHg 30%
    11:00 +39°C° 0 mm 3 m/S 720 mmHg 25%
    12:00 +39°C° 0 mm 3 m/S 719 mmHg 24%
    13:00 +40°C° 0 mm 3 m/S 719 mmHg 23%
    14:00 +40°C° 0 mm 3 m/S 718 mmHg 21%
    15:00 +39°C° 0 mm 2 m/S 717 mmHg 24%
    16:00 +38°C° 0 mm 2 m/S 717 mmHg 27%
    17:00 +37°C° 0 mm 2 m/S 716 mmHg 30%
    18:00 +35°C° 0 mm 2 m/S 717 mmHg 32%
    19:00 +33°C° 0 mm 1 m/S 717 mmHg 34%
    20:00 +31°C° 0 mm 1 m/S 717 mmHg 36%
    21:00 +31°C° 0 mm 1 m/S 717 mmHg 37%
    22:00 +30°C° 0 mm 1 m/S 717 mmHg 39%
    23:00 +30°C° 0 mm 1 m/S 717 mmHg 40%

    übermorgen, 20 Dezember, Donnerstag

    Zeit Temperatur Niederschläge Wind Luftdruck Luftfeuchtigkeit
    00:00 +29°C° 0 mm 1 m/S 717 mmHg 44%
    01:00 +28°C° 0 mm 1 m/S 716 mmHg 47%
    02:00 +27°C° 0 mm 1 m/S 716 mmHg 51%
    03:00 +26°C° 0 mm 1 m/S 716 mmHg 53%
    04:00 +26°C° 0 mm 1 m/S 716 mmHg 56%
    05:00 +25°C° 0 mm 1 m/S 716 mmHg 59%
    06:00 +28°C° 0 mm 2 m/S 717 mmHg 55%
    07:00 +30°C° 0 mm 2 m/S 718 mmHg 51%
    08:00 +34°C° 0 mm 3 m/S 718 mmHg 47%
    09:00 +35°C° 0 mm 3 m/S 718 mmHg 42%
    10:00 +37°C° 0 mm 4 m/S 718 mmHg 36%
    11:00 +40°C° 0 mm 4 m/S 718 mmHg 30%
    12:00 +40°C° 0 mm 4 m/S 717 mmHg 29%
    13:00 +40°C° 0 mm 4 m/S 717 mmHg 29%
    14:00 +41°C° 0 mm 4 m/S 716 mmHg 28%
    15:00 +38°C° 0 mm 3 m/S 716 mmHg 31%
    16:00 +37°C° 0 mm 3 m/S 715 mmHg 34%
    17:00 +36°C° 0 mm 2 m/S 715 mmHg 37%
    18:00 +34°C° 0 mm 2 m/S 715 mmHg 40%
    19:00 +32°C° 0 mm 2 m/S 715 mmHg 43%
    20:00 +31°C° 0 mm 2 m/S 716 mmHg 45%
    21:00 +30°C° 0 mm 2 m/S 716 mmHg 48%
    22:00 +29°C° 0 mm 2 m/S 716 mmHg 51%
    23:00 +28°C° 0 mm 2 m/S 716 mmHg 53%

    21 Dezember, Freitag

    Zeit Temperatur Niederschläge Wind Luftdruck Luftfeuchtigkeit
    00:00 +28°C° 0 mm 2 m/S 716 mmHg 55%
    01:00 +27°C° 0 mm 2 m/S 716 mmHg 57%
    02:00 +27°C° 0 mm 2 m/S 715 mmHg 59%
    03:00 +27°C° 0 mm 2 m/S 715 mmHg 60%
    04:00 +26°C° 0 mm 2 m/S 716 mmHg 62%
    05:00 +26°C° 0 mm 2 m/S 716 mmHg 64%
    06:00 +28°C° 0 mm 3 m/S 716 mmHg 59%
    07:00 +30°C° 0 mm 4 m/S 717 mmHg 54%
    08:00 +33°C° 0 mm 4 m/S 718 mmHg 49%
    09:00 +35°C° 0 mm 5 m/S 718 mmHg 45%
    10:00 +36°C° 0 mm 5 m/S 718 mmHg 40%
    11:00 +39°C° 0 mm 5 m/S 718 mmHg 36%
    12:00 +37°C° 0 mm 4 m/S 717 mmHg 40%
    13:00 +36°C° 0 mm 4 m/S 717 mmHg 43%
    14:00 +34°C° 0 mm 3 m/S 716 mmHg 47%
    15:00 +34°C° 0 mm 3 m/S 716 mmHg 47%
    16:00 +35°C° 0 mm 3 m/S 716 mmHg 47%
    17:00 +35°C° 0 mm 3 m/S 715 mmHg 46%
    18:00 +32°C° 0 mm 2 m/S 715 mmHg 50%
    19:00 +30°C° 0 mm 2 m/S 716 mmHg 53%
    20:00 +29°C° 0 mm 2 m/S 716 mmHg 56%
    21:00 +28°C° 0 mm 1 m/S 716 mmHg 59%
    22:00 +27°C° 0 mm 1 m/S 716 mmHg 61%
    23:00 +26°C° 0 mm 1 m/S 716 mmHg 64%

    22 Dezember, Samstag

    Zeit Temperatur Niederschläge Wind Luftdruck Luftfeuchtigkeit
    00:00 +26°C° 1 mm 1 m/S 716 mmHg 70%
    01:00 +25°C° 1 mm 1 m/S 716 mmHg 76%
    02:00 +24°C° 1 mm 1 m/S 715 mmHg 82%
    03:00 +24°C° 1.1 mm 1 m/S 716 mmHg 85%
    04:00 +24°C° 1.1 mm 1 m/S 716 mmHg 88%
    05:00 +23°C° 1.1 mm 2 m/S 716 mmHg 90%
    06:00 +25°C° 0.9 mm 2 m/S 717 mmHg 86%
    07:00 +26°C° 0.9 mm 3 m/S 717 mmHg 82%
    08:00 +28°C° 0.9 mm 3 m/S 718 mmHg 78%
    09:00 +29°C° 0.7 mm 4 m/S 718 mmHg 69%
    10:00 +32°C° 0.7 mm 4 m/S 718 mmHg 61%
    11:00 +34°C° 0.7 mm 5 m/S 718 mmHg 52%
    12:00 +34°C° 0.2 mm 5 m/S 717 mmHg 50%
    13:00 +35°C° 0.2 mm 5 m/S 716 mmHg 48%
    14:00 +35°C° 0.2 mm 5 m/S 716 mmHg 46%
    15:00 +35°C° 0 mm 4 m/S 716 mmHg 48%
    16:00 +34°C° 0 mm 4 m/S 715 mmHg 49%
    17:00 +34°C° 0 mm 3 m/S 715 mmHg 51%
    18:00 +31°C° 0 mm 3 m/S 715 mmHg 56%
    19:00 +30°C° 0 mm 2 m/S 715 mmHg 61%
    20:00 +28°C° 0 mm 2 m/S 715 mmHg 66%
    21:00 +28°C° 0.1 mm 2 m/S 716 mmHg 68%
    22:00 +28°C° 0.1 mm 2 m/S 716 mmHg 70%
    23:00 +27°C° 0.1 mm 2 m/S 716 mmHg 72%

    23 Dezember, Sonntag

    Zeit Temperatur Niederschläge Wind Luftdruck Luftfeuchtigkeit
    00:00 +27°C° 0.3 mm 2 m/S 716 mmHg 75%
    01:00 +26°C° 0.3 mm 1 m/S 715 mmHg 77%
    02:00 +26°C° 0.3 mm 1 m/S 715 mmHg 79%
    03:00 +26°C° 0.7 mm 1 m/S 715 mmHg 81%
    04:00 +25°C° 0.7 mm 1 m/S 716 mmHg 84%
    05:00 +25°C° 0.7 mm 1 m/S 716 mmHg 86%
    06:00 +26°C° 0.5 mm 1 m/S 717 mmHg 84%
    07:00 +26°C° 0.5 mm 2 m/S 717 mmHg 81%
    08:00 +27°C° 0.5 mm 2 m/S 718 mmHg 79%
    09:00 +28°C° 0.4 mm 2 m/S 718 mmHg 74%
    10:00 +30°C° 0.4 mm 3 m/S 718 mmHg 68%
    11:00 +31°C° 0.4 mm 3 m/S 718 mmHg 63%
    12:00 +31°C° 0.4 mm 3 m/S 717 mmHg 63%
    13:00 +31°C° 0.4 mm 3 m/S 717 mmHg 63%
    14:00 +31°C° 0.4 mm 3 m/S 716 mmHg 63%
    15:00 +30°C° 0.2 mm 3 m/S 716 mmHg 65%
    16:00 +29°C° 0.2 mm 2 m/S 716 mmHg 67%
    17:00 +29°C° 0.2 mm 2 m/S 716 mmHg 70%
    18:00 +28°C° 0.2 mm 2 m/S 716 mmHg 73%
    19:00 +27°C° 0.2 mm 1 m/S 716 mmHg 76%
    20:00 +26°C° 0.2 mm 1 m/S 716 mmHg 79%
    21:00 +26°C° 0 mm 1 m/S 716 mmHg 80%
    22:00 +26°C° 0 mm 1 m/S 716 mmHg 81%
    23:00 +25°C° 0 mm 1 m/S 716 mmHg 82%
    Mehr zeigen